{"data":{"norad_id":66921,"intl_designator":"2025-285G","name":"HULIANWANG DIGUI-111","alt_names":[],"object_type":"PAYLOAD","status":"ACTIVE","operator":null,"country":"PRC","launch_date":"2025-12-06","launch_site_code":"WSC","launch_vehicle":null,"mission":null,"orbit_class":"UNKNOWN","rcs_meters":null,"size_class":null,"mass_kg":null,"dimensions":null,"purposes":[],"wikipedia_slug":null,"has_3d_model":false,"image_url":null,"decayed_at":null,"tle_current":{"epoch":"2026-09-20T23:30:43.685856Z","epoch_age_seconds":70629,"freshness":"FRESH","line1":"1 66921U 25285G   26263.97967229 -.00000108  00000+0  34977-4 0  9999","line2":"2 66921  50.0115 162.3891 0000066 305.1987  54.8879 13.29329313 38809","mean_motion":13.29329313,"eccentricity":6.6e-6,"inclination_deg":50.0115,"raan_deg":162.3891,"arg_perigee_deg":305.1987,"mean_anomaly_deg":54.8879,"bstar":3.4977e-5,"rev_number":3880,"period_min":108.32530253547,"perigee_km":1149.2443840353,"apogee_km":1149.3437461253,"semimajor_km":7527.4310650803,"source":"CELESTRAK","updated_at":"2026-09-21T09:00:16.305738Z"}}}